Location: Marse
(42.1502°N, 110.9866°W)
Time: 14:44:21
(UTC+00:00)

Oscar 19 - Visible Passes

Search period start: 02 July 2022 00:00
Search period end: 12 July 2022 00:00
Orbit: 772 x 790 km, 98.8° (Epoch: 02 July)

Date Brightness Start Highest point End Pass type
(mag) Time Alt. Az. Time Alt. Az. Time Alt. Az.
02 Jul 12.7 09:58:47 10° NE 10:02:46 22° E 10:06:44 10° SE visible
03 Jul 13.3 09:29:07 10° ENE 09:30:22 11° E 09:31:38 10° ESE visible
03 Jul 10.7 11:05:10 10° NNE 11:10:19 87° WNW 11:15:26 10° SSW visible
04 Jul 11.5 10:33:18 10° NNE 10:38:14 47° E 10:43:09 10° S visible
05 Jul 12.6 10:01:54 10° NE 10:06:01 24° E 10:10:06 10° SSE visible
06 Jul 13.2 09:31:52 10° ENE 09:33:38 12° E 09:35:24 10° ESE visible
06 Jul 10.6 11:08:22 10° NNE 11:13:32 82° WNW 11:18:38 10° SSW visible
07 Jul 11.4 10:36:28 10° NNE 10:41:27 50° E 10:46:25 10° S visible
08 Jul 12.5 10:05:02 10° NE 10:09:15 25° E 10:13:27 10° SSE visible
09 Jul 13.2 09:34:44 10° ENE 09:36:54 13° E 09:39:03 10° ESE visible
09 Jul 10.7 11:11:36 10° N 11:16:44 77° WNW 11:21:51 10° SSW visible
10 Jul 11.3 10:39:40 10° NNE 10:44:42 54° E 10:49:42 10° S visible
11 Jul 12.4 10:08:10 10° NE 10:12:30 27° E 10:16:49 10° SSE visible
